STARLINK-1110 (44946 NORAD) Tracking and Keplerian Element Data

This shows tracking and keplerian element data for the satellite.

Feedback or suggestion? Click here.




ElementValue
Catalog44946
NameSTARLINK-1110
Epoch Orbit1361
Epoch Day94.25001157
Epoch Year2020
RAAN332.1305
Inclination53.0018
Eccentricity0.0001211
Argument of Perigee63.5296
Mean Anonmoly10.1056
Mean Motion15.05604737
Decay Rate-0.00024736
L11 44946U 20001AJ 20094.25001157 -.00024736 00000-0 -16833-2 0 9993
L22 44946 53.0018 332.1305 0001211 63.5296 10.1056 15.05604737 13611

Live tracking and technical data element details for STARLINK-1110 (NORAD 44946). STARLINK-1110 can be tracked NOW for your location showing map with azimuth and elevation plus other details from your city location.

Track the satellite on the map from your city or location and see movement details for azimuth, elevation, latitude, longitude, range, height, and movement on the map or in text.







IsCatalogInMostPopularTable: catalog: 44946, numindb: 17
Update: records affected: 1



GetName: 44946 STARLINK-1110

Hit Count: updated at: Fri, 03 Apr 2020 23:59:15 GMT